Location: Caracas
(10.5033°N, 66.8422°W)
Time: 15:23:47
(UTC-04:00)

Hubble Space Telescope - Pass Details

Date: 15 November 2017
Orbit: 537 x 541 km, 28.5° (Epoch: 18 November)

Event Time Altitude Azimuth Distance (km) Brightness Sun altitude
Exits shadow 04:20:57 18° 54° (NE) 1,333 3.1 -29.5°
Drops below altitude 10° 04:22:06 10° 56° (NE) 1,775 3.9 -29.2°
Sets 04:24:22 0° 59° (ENE) 2,666 4.9 -28.7°
